Location: Zilina
(49.2170°N, 18.7330°E)
Time: 19:02:38
(UTC+02:00)

ISS - Pass Details

Date: 26 March 2019
Orbit: 408 x 410 km, 51.6° (Epoch: 20 April)

Event Time Altitude Azimuth Distance (km) Brightness Sun altitude
Rises 21:00:51 0° 279° (W) 2,338 0.9 -26.8°
Reaches altitude 10° 21:02:59 10° 284° (WNW) 1,476 -0.2 -27.0°
Enters shadow 21:04:12 20° 291° (WNW) 1,002 -1.2 -27.2°
